Regional Weather Roundup
Issued by NWS Green Bay, WI

Home | Current Version | Previous Version | Text Only | Print | Product List | Glossary On
Versions: 1 2 3 4 5 6 7 8 9 10 11 12 13 14 15 16 17 18 19 20 21 22 23 24 25 26 27 28 29 30 31 32 33 34 35 36 37 38 39 40 41 42 43 44 45 46 47 48 49 50
241
ASUS43 KGRB 221811
RWRGRB

NORTH-CENTRAL AND NORTHEAST WISCONSIN REGIONAL WEATHER ROUNDUP
NATIONAL WEATHER SERVICE GREEN BAY WI
100 PM CDT MON MAY 22 2017

WIZ005-009-010>012-018-019-221900-
NORTH CENTRAL WISCONSIN

CITY           SKY/WX    TMP DP  RH WIND       PRES   REMARKS
IRONWOOD       CLOUDY    51  42  71 SW14      29.77S
MANITOWISH WTR CLOUDY    49  44  82 W12       29.79S
ARBOR VITAE    CLOUDY    52  43  72 SW9G16    29.79S
EAGLE RIVER    CLOUDY    51  39  62 W15G22    29.79S
LAND O LAKES   CLOUDY    51  40  66 W9        29.80S
RHINELANDER    CLOUDY    56  41  57 W12G20    29.80F
PHILLIPS       CLOUDY    52  43  71 W7        29.79S
ANTIGO         CLOUDY    55  43  64 W16G24    29.82F
TOMAHAWK       CLOUDY    54  41  60 W10G17    29.80F
MERRILL        CLOUDY    58  43  56 W16G22    29.81F
$$

WIZ013-073-221900-
NORTHEAST WISCONSIN

CITY           SKY/WX    TMP DP  RH WIND       PRES   REMARKS
IRON MOUNTAIN  CLOUDY    56  39  53 W10G21    29.78F
MARINETTE      NOT AVBL
OCONTO         MOSUNNY   62  42  46 W13G29    29.83F
$$

WIZ017-030-035>037-045-221900-
CENTRAL WISCONSIN

CITY           SKY/WX    TMP DP  RH WIND       PRES   REMARKS
MEDFORD        CLOUDY    56  41  56 SW15G23   29.81S
WAUSAU         PTSUNNY   59  42  53 W13G22    29.80F
MOSINEE        PTSUNNY   61  45  55 SW17G23   29.84F
MARSHFIELD     MOSUNNY   62  43  49 W12G25    29.82F
WISC RAPIDS    MOSUNNY   65  44  46 SW16G22   29.85F
STEVENS POINT  MOSUNNY   62  41  46 W12       29.83F
WAUPACA        MOSUNNY   67  43  41 SW15G26   29.84F
SHAWANO        PTSUNNY   65  42  44 SW13G22   29.83F
CLINTONVILLE   PTSUNNY   64  41  42 SW16G22   29.84F
WAUTOMA        MOSUNNY   66  45  46 MISG      29.85F
$$

WIZ038-039-048-051-221900-
FOX VALLEY

CITY           SKY/WX    TMP DP  RH WIND       PRES   REMARKS
NWS GREEN BAY  PTSUNNY   62  47  57 SW13      29.85F
APPLETON       PTSUNNY   63  43  48 SW14G21   29.85F
OSHKOSH        SUNNY     64  46  52 SW15G21   29.86F
FOND DU LAC    MOSUNNY   65  46  50 SW12G23   29.87F
$$

WIZ022-050-052-221900-
EAST CENTRAL WISCONSIN

CITY           SKY/WX    TMP DP  RH WIND       PRES   REMARKS
EPHRAIM        MOCLDY    57  45  63 W10G16    29.83S
WASHINGTON ISL CLOUDY    57  44  63 SW12      29.82S
STURGEON BAY   MOSUNNY   60  43  53 W14G23    29.85F
MANITOWOC      PTSUNNY   63  44  50 W14G25    29.88F
SHEBOYGAN      MOSUNNY   65  47  52 SW17      29.89F
$$

LMZ563-521-522-541>543-221900-
LAKESHORE

STATION/POSITION TIME  TEMP    WIND        PRES    VSBY  WAVE
                       AIR SEA DIR/SP/G                  HT/PER
                 (UTC) (F)     (DEG/KT/KT) (MB)    (MI)  (FT/S)
SHEBOYGAN LKSHOR 1800   61     230/ 16/ 21 1012.0F
KEWAUNEE LKSHORE 1748   60     240/ 10/ 18 1010.9F
NORTHPORT PIER   1740   58     280/  8/ 17 1009.8F
N MID LAKE BUOY  1750   42 39  190/ 12/ 14 1011.4F         2/ 5
CHAMBERS ISLAND  1740   58     210/  7/ 15 1009.8S
MENOMINEE LKSHOR 1748          240/ 15/ 22 1009.2F
$$




USA.gov is the U.S. government's official web portal to all federal, state and local government web resources and services.